Location: Drocourt
(49.0571°N, 1.7669°E)
Time: 13:26:20
(UTC+00:00)

Vanguard 2 Rocket - Pass Details

Date: 17 April 2024
Orbit: 556 x 3304 km, 32.9° (Epoch: 22 May)

Event Time Altitude Azimuth Distance (km) Brightness Sun altitude
Rises 23:37:44 0° 244° (WSW) 6,984 11.2 -30.3°
Reaches altitude 10° 23:42:29 10° 239° (WSW) 6,133 10.8 -30.3°
Maximum altitude 00:00:47 46° 175° (S) 3,899 9.5 -30.3°
Drops below altitude 10° 00:16:11 10° 110° (ESE) 5,236 10.6 -30.1°
Sets 00:19:51 0° 104° (ESE) 5,931 11.0 -30.1°
